Weather History for KMNN - January, 2013

Change the Weather History Date:

Sunday, January 27, 2013

  Actual Average (KDLZ) Record (KDLZ)
Temperature  
Mean Temperature 19 °F -  
Max Temperature 32 °F 33 °F 61 °F (1974)
Min Temperature 8 °F 15 °F -9 °F (1936)
Degree Days  
Heating Degree Days 46    
Moisture  
Dew Point 16 °F    
Average Humidity 76    
Maximum Humidity 92    
Minimum Humidity 64    
Precipitation  
Precipitation 0.06 in - - ()
Sea Level Pressure  
Sea Level Pressure 30.42 in    
Wind  
Wind Speed 5 mph (SSE)    
Max Wind Speed 15 mph    
Max Gust Speed -    
Visibility 9 miles    
Events Rain    
Averages and records for this station are not official NWS values.
T = Trace of Precipitation, MM = Missing Value Source: NWS Daily Summary

Daily Weather History Graph

Daily Weather History Graph

Search for Another Location

Airport or City:

Trip Planner

Search our weather history database for the weather conditions in past years. The results will help you decide how hot, cold, wet, or windy it might be!

Date:

Astronomy

Jan. 27, 2013 Rise Set
Actual Time 7:46 AM EST 5:44 PM EST
Civil Twilight 7:17 AM EST 6:13 PM EST
Nautical Twilight 6:44 AM EST 6:46 PM EST
Astronomical Twilight 6:11 AM EST 7:18 PM EST
Moon 6:38 PM EST (1/27) 7:38 AM EST (1/27)
Length of Visible Light 10h 56m
Length of Day
9h 58m
Full, 100% of the Moon is Illuminated
Jan 27
Full
Feb 3
Last Quarter
Feb 10
New
Feb 17
First Quarter
Feb 25
Full

Hourly Weather History & Observations

Time (EST) Temp. Windchill Dew Point Humidity Pressure Visibility Wind Dir Wind Speed Gust Speed Precip Events Conditions
12:53 AM 12.0 °F - 8.1 °F 84% 30.49 in 10.0 mi Calm Calm - N/A   Clear
1:53 AM 12.9 °F - 8.1 °F 81% 30.50 in 10.0 mi Calm Calm - N/A   Clear
2:53 AM 12.0 °F - 8.1 °F 84% 30.51 in 9.0 mi Calm Calm - N/A   Clear
3:53 AM 9.0 °F - 7.0 °F 92% 30.49 in 8.0 mi Calm Calm - N/A   Clear
4:53 AM 8.1 °F 1.4 °F 5.0 °F 87% 30.50 in 8.0 mi SSE 3.5 mph - N/A   Clear
5:53 AM 8.1 °F -2.0 °F 5.0 °F 87% 30.49 in 8.0 mi ESE 5.8 mph - N/A   Mostly Cloudy
6:53 AM 10.9 °F - 7.0 °F 84% 30.52 in 9.0 mi Calm Calm - N/A   Clear
7:53 AM 9.0 °F 0.6 °F 5.0 °F 84% 30.52 in 7.0 mi East 4.6 mph - N/A   Partly Cloudy
8:53 AM 14.0 °F 5.1 °F 9.0 °F 80% 30.53 in 7.0 mi SSE 5.8 mph - N/A   Clear
9:53 AM 19.9 °F 10.1 °F 14.0 °F 78% 30.51 in 8.0 mi SSE 8.1 mph - N/A   Clear
10:53 AM 24.1 °F 12.0 °F 15.1 °F 69% 30.51 in 10.0 mi SSE 13.8 mph - N/A   Clear
11:53 AM 26.1 °F 14.0 °F 16.0 °F 66% 30.49 in 10.0 mi SSE 15.0 mph - N/A   Clear
12:53 PM 27.0 °F 17.3 °F 17.1 °F 66% 30.47 in 9.0 mi SSE 10.4 mph - N/A   Scattered Clouds
1:53 PM 28.9 °F 19.2 °F 19.0 °F 67% 30.43 in 9.0 mi SSE 11.5 mph - N/A   Clear
2:53 PM 30.0 °F 23.2 °F 19.0 °F 64% 30.40 in 9.0 mi SSE 6.9 mph - N/A   Clear
3:53 PM 30.0 °F 21.7 °F 19.9 °F 66% 30.38 in 8.0 mi SSE 9.2 mph - N/A   Clear
4:53 PM 30.9 °F 22.2 °F 19.9 °F 64% 30.38 in 9.0 mi SSE 10.4 mph - N/A   Mostly Cloudy
5:53 PM 30.0 °F 22.4 °F 21.0 °F 69% 30.37 in 10.0 mi SE 8.1 mph - N/A   Overcast
6:53 PM 30.9 °F 21.7 °F 21.0 °F 67% 30.35 in 10.0 mi SE 11.5 mph - N/A   Overcast
7:53 PM 30.9 °F 22.2 °F 21.0 °F 67% 30.33 in 10.0 mi SE 10.4 mph - N/A   Overcast
8:53 PM 30.9 °F 24.3 °F 21.9 °F 69% 30.34 in 10.0 mi SSE 6.9 mph - N/A   Overcast
9:53 PM 30.9 °F 22.2 °F 23.0 °F 72% 30.31 in 8.0 mi South 10.4 mph - 0.00 in   Overcast
10:04 PM 30.2 °F 20.2 °F 24.8 °F 80% 30.25 in 7.0 mi SSE 12.7 mph - 0.01 in Rain Light Freezing Rain
10:53 PM 30.9 °F 20.7 °F 25.0 °F 79% 30.27 in 6.0 mi SSE 13.8 mph - 0.03 in Rain Light Freezing Rain
11:53 PM 32.0 °F 22.5 °F 28.0 °F 85% 30.23 in 5.0 mi SSE 12.7 mph - 0.03 in Rain Light Freezing Rain